Preview of NWS' New Version of Forecast
This preview is not operational and should not be used for support decisions.

Regional Weather Roundup (RWR)

Issued by National Weather Service (NWS)

                            
000
ASUS42 KTBW 220415
RWRFL 
FLORIDA REGIONAL WEATHER ROUNDUP
NATIONAL WEATHER SERVICE TAMPA BAY RUSKIN FL
1200 AM EDT MON APR 22 2019

NOTE: "FAIR" INDICATES FEW OR NO CLOUDS BELOW 12,000 FEET WITH NO
SIGNIFICANT WEATHER AND/OR OBSTRUCTIONS TO VISIBILITY.

FLZ001>010-012>015-112-114-115-220500-
PANHANDLE FLORIDA
  
CITY           SKY/WX    TMP DP  RH WIND       PRES   REMARKS
PENSACOLA      FAIR      62  49  62 W6        30.18R                  
PENSACOLA NAS  FAIR      52  49  89 CALM      30.17S                  
MILTON NAS     FAIR      52  46  80 CALM      30.18R                  
CRESTVIEW      FAIR      51  45  79 CALM      30.19R                  
DUKE FIELD     FAIR      53  45  74 CALM      30.18R                  
VALPARAISO     FAIR      58  47  67 CALM      30.17R                  
MARY ESTHER    CLEAR     55  48  80 N3        30.17R                  
PANAMA CITY    FAIR      58  47  66 CALM      30.17R                  
TYNDALL AFB    FAIR      60  49  67 CALM      30.18R                  
APALACHICOLA   FAIR      53  44  71 CALM      30.19R                  

STATION/POSITION SKY/WX   TEMP    WIND        PRES    WAVE   SWELL
                          AIR SEA DIR/SP/G            HT/PER HT/PER
                          (F)     (DEG/KT/KT) (MB)    (FT/S) (FT/S)
30.1N   87.6W                                 1022.2R   1/ 6
29.2N   88.2W                     180/  2/  4 1022.8R   1
PANAMA CITY BEAC           68 70  280/ 12/ 13 1022.1R
TOWER C          NOT AVBL

$$
FLZ011-016>038-118-127-128-134-139-239-220500-
NORTH FLORIDA
  
CITY           SKY/WX    TMP DP  RH WIND       PRES   REMARKS
MARIANNA       FAIR      61  46  57 CALM      30.17R                  
TALLAHASSEE    FAIR      52  46  80 CALM      30.17R                  
PERRY          FAIR      53  50  87 CALM      30.19R                  
LIVE OAK       CLEAR     52  48  87 CALM      30.18R                  
CROSS CITY     FAIR      50  46  87 CALM      30.19S                  
LAKE CITY      FAIR      55  45  67 CALM      30.18S                  
GAINESVILLE    FAIR      60  45  57 W5        30.21R                  
PALATKA        FAIR     N/A N/A N/A W6        30.18S                  
MAYPORT NAS    FAIR      60  50  69 CALM      30.17R                  
JACKSONVILLE   FAIR      54  45  71 CALM      30.16R                  
JAX NAS        FAIR      65  44  46 W3        30.17R                  
JAX CECIL      FAIR      46  45  93 CALM      30.17S                  
FERNANDINA BEA FAIR      56  47  72 CALM      30.16S                  
ST AUGUSTINE   FAIR      61  51  70 SW6       30.18R                  
PALM COAST     FAIR      58  50  73 CALM      30.18R                  

STATION/POSITION SKY/WX   TEMP    WIND        PRES    WAVE   SWELL
                          AIR SEA DIR/SP/G            HT/PER HT/PER
                          (F)     (DEG/KT/KT) (MB)    (FT/S) (FT/S)
SHELL POINT      NOT AVBL
KEATON BEACH               67     270/  9/ 10 1022.2R
CEDAR KEY                  65      CALM  /  2 1022.2R
FERNANDINA                 63 68     CALM     1022.0R
30.7N   81.3W                 67                N/A     2/ 9
MAYPORT                    64 68  220/  2/  4 1021.6R
31.4N   80.9W              67 67   70/ 12/ 14 1021.1R   2/ 9   2/ 9
ST AUGUSTINE               63 73  220/  6/  8 1021.8R

$$
FLZ040-043>046-052-053-057-058-063-144-220500-
INTERIOR CENTRAL FLORIDA
  
CITY           SKY/WX    TMP DP  RH WIND       PRES   REMARKS
OCALA          FAIR      54  47  77 CALM      30.20R                  
LEESBURG       FAIR      62  48  60 NW6       30.19R                  
SANFORD        FAIR      62  51  67 SW5       30.18R                  
ORLANDO EXEC   FAIR      64  47  53 CALM      30.19R                  
ORLANDO INTL   FAIR      64  49  57 N5        30.19R                  
KISSIMMEE      FAIR      63  48  58 CALM      30.20R                  
WINTER HAVEN   FAIR      63  48  58 N7        30.19R                  
BARTOW         FAIR      61  46  59 NW5       30.18R                  
SEBRING        FAIR      61  51  70 NE6       30.19R                  
OKEECHOBEE     FAIR      57  52  82 CALM      30.16S                  

$$
FLZ041-047-054-059-064-141-147-220500-
EAST CENTRAL FLORIDA
  
CITY           SKY/WX    TMP DP  RH WIND       PRES   REMARKS
DAYTONA BEACH  FAIR      56  53  90 W8        30.18R                  
DELAND         FAIR      59  50  72 CALM      30.19R                  
JFK SPACE CTR  FAIR      53  49  86 CALM      30.17R                  
CAPE CANAVERAL FAIR      53  47  80 CALM      30.16S                  
PATRICK AFB    FAIR      68  51  55 E5        30.17R                  
MELBOURNE      FAIR      68  52  56 E6        30.17S                  
VERO BEACH     FAIR      57  52  83 CALM      30.17R                  
FT PIERCE      FAIR      55  52  89 CALM      30.17R                  
STUART         FAIR      68  52  56 E3        30.18S                  

STATION/POSITION SKY/WX   TEMP    WIND        PRES    WAVE   SWELL
                          AIR SEA DIR/SP/G            HT/PER HT/PER
                          (F)     (DEG/KT/KT) (MB)    (FT/S) (FT/S)
28.5N   80.2W              72      50/  4/  6 1022.0R   3/ 8   3/ 8
28.9N   78.5W              71 78  350/ 10/ 16 1021.8S   4/ 8   3/ 8
TRIDENT PIER               60 76   40/  2/  2 1023.0R
28.4N   80.5W                 76                N/A     1/ 8
27.5N   80.2W                 75                N/A     2/ 8

$$
FLZ050-056-061-142-242-148-248-149-249-151-251-155-255-
160-260-220500-
WEST CENTRAL FLORIDA
  
CITY           SKY/WX    TMP DP  RH WIND       PRES   REMARKS
CRYSTAL RIVER  FAIR      52  48  87 CALM      30.19S                  
INVERNESS      FAIR      54  52  94 CALM      30.19S                  
BROOKSVILLE    FAIR      51  47  86 CALM      30.19S                  
CLEARWATER AIR FAIR      57  45  62 CALM      30.19R                  
ST PETE CLEARW FAIR      63  46  54 N5        30.19R                  
TAMPA INTL     FAIR      62  47  57 CALM      30.19R                  
PLANT CITY     FAIR      61  46  59 N3        30.20S                  
MACDILL AFB      N/A     62  44  52 NE5       30.18R                  
PETER O KNIGHT CLOUDY    63  48  59 CALM      30.19R                  
ST PETERSBURG    N/A    N/A N/A N/A MISG      30.17R                  
SARASOTA       FAIR      62  45  53 N3        30.16R                  
VENICE         FAIR      66  45  45 N6        30.18S                  

STATION/POSITION SKY/WX   TEMP    WIND        PRES    WAVE   SWELL
                          AIR SEA DIR/SP/G            HT/PER HT/PER
                          (F)     (DEG/KT/KT) (MB)    (FT/S) (FT/S)
27.3N   84.2W                 75                N/A     3/ 6
CLEARWATER BEACH           67 72   40/  4/  5 1022.1R
MIDDLE TAMPA BAY           68      20/  9/ 13 1022.1R
VENICE                     66 75  360/  8/  9 1021.7R

$$
FLZ066-069-070-075>078-162-262-165-265-220500-
SOUTHWEST FLORIDA AND KEYS
  
CITY           SKY/WX    TMP DP  RH WIND       PRES   REMARKS
PUNTA GORDA    FAIR      61  47  59 NW6       30.19R                  
FT MYERS       FAIR      65  50  58 N7        30.16S                  
SOUTHWEST INTL FAIR      65  51  60 N6        30.17R                  
NAPLES         FAIR      68  57  68 N6        30.15S                  
IMMOKALEE      FAIR      61  54  77 NW6       30.14S                  
MARATHON       MOCLDY    76  59  55 N6        30.14S                  
KEY WEST NAS   FAIR      73  59  61 N7        30.15S                  
KEY WEST INTL  FAIR      72  61  68 VRB5      30.16R                  

STATION/POSITION SKY/WX   TEMP    WIND        PRES    WAVE   SWELL
                          AIR SEA DIR/SP/G            HT/PER HT/PER
                          (F)     (DEG/KT/KT) (MB)    (FT/S) (FT/S)
NAPLES                     72 76   20/ 14/ 15 1020.8S
DRY TORTUGAS               72     360/  6/  8 1021.2S
SAND KEY                   72                 1021.0R
SOMBRERO KEY               74                 1020.2R

$$
FLZ067-068-071>074-168-172>174-220500-
SOUTHEAST FLORIDA 
  
CITY           SKY/WX    TMP DP  RH WIND       PRES   REMARKS
W PALM BEACH   FAIR      72  44  36 NE5       30.16R                  
FT LAUDER-EXEC FAIR      71  57  61 E3        30.15R                  
FT LAUDERDALE  FAIR      72  57  59 E6        30.14S                  
POMPANO BEACH  FAIR      72  58  61 E6        30.15R                  
PEMBROKE PINES FAIR      70  57  63 E3        30.16S                  
OPA LOCKA      FAIR      71  58  63 CALM      30.15S                  
MIAMI          FAIR      71  57  61 E6        30.15R                  
WEST KENDALL   FAIR      66  59  78 CALM      30.14S                  
HOMESTEAD      FAIR      63  60  90 CALM      30.13R                  

STATION/POSITION SKY/WX   TEMP    WIND        PRES    WAVE   SWELL
                          AIR SEA DIR/SP/G            HT/PER HT/PER
                          (F)     (DEG/KT/KT) (MB)    (FT/S) (FT/S)
PORT EVERGLADES            74      80/  6/ 10 1020.9R
VIRGINIA KEY               75 80   70/  6/  9 1020.2R
LAKE WORTH                 73 78   70/  6/  9 1022.2R
SETTLEMENT POINT           71      60/ 10/ 11 1021.6F

$$